Bar Harbor, ME

6:27 AM EDT on August 26, 2019 (GMT -0400)
Hancock County-Bar Harbor

Weather History for KBHB - June, 2019

Change the Weather History Date:

Saturday, June 8, 2019

  Actual Average Record
Temperature  
Mean Temperature 60 °F -  
Max Temperature 72 °F 72 °F 89 °F (1976)
Min Temperature 48 °F 49 °F 35 °F (2002)
Degree Days  
Heating Degree Days 5    
Growing Degree Days 10 (Base 50)    
Moisture  
Dew Point 43 °F    
Average Humidity 59    
Maximum Humidity 97    
Minimum Humidity 28    
Precipitation  
Precipitation 0.00 in - - ()
Sea Level Pressure  
Sea Level Pressure 30.14 in    
Wind  
Wind Speed 6 mph (NNW)    
Max Wind Speed 17 mph    
Max Gust Speed 28 mph    
Visibility 10 miles    
Events      
Averages and records for this station are not official NWS values.
T = Trace of Precipitation, MM = Missing Value Source: NWS Daily Summary

Daily Weather History Graph

Daily Weather History Graph

Search for Another Location

Airport or City:

Astronomy

Jun. 08, 2019 Rise Set
Actual Time 4:49 AM EDT 8:16 PM EDT
Civil Twilight 4:12 AM EDT 8:52 PM EDT
Nautical Twilight 3:25 AM EDT 9:40 PM EDT
Astronomical Twilight 2:24 AM EDT 10:41 PM EDT
Moon 10:18 AM EDT (6/8) 12:10 AM EDT (6/8)
Length of Visible Light 16h 39m
Length of Day
15h 26m
Waxing Crescent, 32% of the Moon is Illuminated
Jun 8
Waxing Crescent
Jun 10
First Quarter
Jun 17
Full
Jun 25
Last Quarter
Jul 2
New

Hourly Weather History & Observations

Time (EDT) Temp. Dew Point Humidity Pressure Visibility Wind Dir Wind Speed Gust Speed Precip Events Conditions
12:56 AM 55.9 °F 51.1 °F 84% 29.99 in 10.0 mi WSW 3.5 mph - 0.00 in   Overcast
1:56 AM 51.1 °F 50.0 °F 96% 30.01 in 10.0 mi West 3.5 mph - N/A   Partly Cloudy
2:56 AM 51.1 °F 50.0 °F 96% 30.03 in 10.0 mi Calm Calm - N/A   Clear
3:56 AM 48.9 °F 48.0 °F 97% 30.04 in 10.0 mi Calm Calm - N/A   Clear
4:56 AM 51.1 °F 48.0 °F 89% 30.07 in 10.0 mi Calm Calm - N/A   Clear
5:56 AM 54.0 °F 48.0 °F 80% 30.10 in 10.0 mi NNE 4.6 mph - N/A   Clear
6:56 AM 57.0 °F 46.9 °F 69% 30.13 in 10.0 mi NNW 6.9 mph - N/A   Clear
7:56 AM 59.0 °F 44.1 °F 58% 30.14 in 10.0 mi North 10.4 mph - N/A   Clear
8:56 AM 61.0 °F 44.1 °F 54% 30.15 in 10.0 mi NNE 9.2 mph - N/A   Clear
9:56 AM 63.0 °F 39.0 °F 41% 30.15 in 10.0 mi North 11.5 mph 16.1 mph N/A   Clear
10:56 AM 64.9 °F 39.0 °F 39% 30.15 in 10.0 mi North 13.8 mph 25.3 mph N/A   Clear
11:56 AM 66.0 °F 37.9 °F 36% 30.15 in 10.0 mi NNW 10.4 mph 19.6 mph N/A   Clear
12:56 PM 68.0 °F 39.0 °F 35% 30.15 in 10.0 mi Variable 5.8 mph - N/A   Clear
1:56 PM 69.1 °F 37.0 °F 31% 30.15 in 10.0 mi NNW 12.7 mph 20.7 mph N/A   Clear
2:56 PM 70.0 °F 37.0 °F 30% 30.14 in 10.0 mi North 17.3 mph 27.6 mph N/A   Clear
3:56 PM 72.0 °F 37.0 °F 28% 30.15 in 10.0 mi NNW 9.2 mph - N/A   Clear
4:56 PM 71.1 °F 39.0 °F 31% 30.16 in 10.0 mi North 12.7 mph - N/A   Clear
5:56 PM 71.1 °F 37.9 °F 30% 30.17 in 10.0 mi North 8.1 mph - N/A   Clear
6:56 PM 69.1 °F 37.9 °F 32% 30.19 in 10.0 mi NNW 3.5 mph - N/A   Clear
7:56 PM 60.1 °F 46.9 °F 62% 30.22 in 10.0 mi SSW 8.1 mph - N/A   Clear
8:56 PM 57.0 °F 46.0 °F 67% 30.25 in 10.0 mi SSW 3.5 mph - N/A   Clear
9:56 PM 55.0 °F 46.0 °F 72% 30.26 in 10.0 mi SSW 3.5 mph - N/A   Clear
10:56 PM 50.0 °F 45.0 °F 83% 30.26 in 10.0 mi Calm Calm - N/A   Clear
11:56 PM 48.9 °F 45.0 °F 86% 30.27 in 10.0 mi Calm Calm - N/A   Clear